Location: Unspecified
(0.0000°N, 0.0000°E)
Time: 16:39:38
(UTC+00:00)

Courier 1B - All Passes

Search period start: 18 June 2019 00:00
Search period end: 28 June 2019 00:00
Orbit: 963 x 1209 km, 28.3° (Epoch: 18 June)

Date Brightness Start Highest point End Pass type
(mag) Time Alt. Az. Time Alt. Az. Time Alt. Az.
18 Jun - 00:58:02 10° NNW 01:02:18 15° NNE 01:06:28 10° NE night (unlit)
18 Jun - 02:50:08 10° NW 02:57:23 45° NNE 03:04:17 10° E visible
18 Jun - 04:44:26 10° WNW 04:51:44 56° SSW 04:58:34 10° SE visible
18 Jun - 06:41:59 10° WSW 06:46:13 17° SSW 06:50:20 10° SSE daylight
18 Jun - 14:23:36 10° SW 14:29:32 35° SSE 14:35:43 10° E daylight
18 Jun - 16:16:56 10° WSW 16:23:40 67° NNW 16:30:51 10° NE daylight
18 Jun - 18:13:10 10° WNW 18:18:18 21° NNW 18:23:39 10° NNE visible
19 Jun - 00:05:20 10° N 00:07:55 12° NNE 00:10:30 10° NE night (unlit)
19 Jun - 01:56:29 10° NW 02:03:21 33° NNE 02:09:57 10° E visible
19 Jun - 03:50:12 10° WNW 03:57:50 78° SSW 04:05:01 10° SE visible
19 Jun - 05:46:40 10° WSW 05:52:13 23° SSW 05:57:33 10° SSE daylight
19 Jun - 13:30:29 10° SSW 13:35:41 25° SSE 13:41:02 10° E daylight
19 Jun - 15:23:10 10° WSW 15:29:51 89° SE 15:36:56 10° ENE daylight
19 Jun - 17:18:29 10° W 17:24:13 27° NNW 17:30:15 10° NNE daylight
20 Jun - 01:02:59 10° NNW 01:09:13 25° NNE 01:15:18 10° E night (unlit)
20 Jun - 02:56:09 10° NW 03:03:54 78° NNE 03:11:16 10° ESE visible
20 Jun - 04:51:44 10° W 04:58:15 32° SSW 05:04:27 10° SSE visible
20 Jun - 12:37:35 10° SSW 12:41:46 18° SSE 12:46:01 10° ESE daylight
20 Jun - 14:29:34 10° SW 14:36:04 64° SSE 14:42:52 10° ENE daylight
20 Jun - 16:24:07 10° W 16:30:16 36° NNW 16:36:45 10° NE daylight
20 Jun - 18:22:45 10° NW 18:25:22 12° NNW 18:28:01 10° N visible
21 Jun - 00:09:40 10° NNW 00:15:01 19° NNE 00:20:17 10° ENE night (unlit)
21 Jun - 02:02:15 10° NW 02:09:55 58° NNE 02:17:17 10° ESE visible
21 Jun - 03:57:05 10° W 04:04:18 44° SSW 04:11:09 10° SE visible
21 Jun - 05:55:42 10° SW 05:59:04 14° SSW 06:02:21 10° S daylight
21 Jun - 11:45:07 10° S 11:47:47 13° SSE 11:50:25 10° SE daylight
21 Jun - 13:36:09 10° SW 13:42:18 45° SSE 13:48:40 10° E daylight
21 Jun - 15:30:00 10° WSW 15:36:23 50° NNW 15:43:07 10° NE daylight
21 Jun - 17:27:10 10° WNW 17:31:08 16° NNW 17:35:14 10° NNE daylight
21 Jun - 23:16:37 10° N 23:20:43 15° NNE 23:24:48 10° NE visible
22 Jun - 01:08:31 10° NW 01:15:53 43° NNE 01:23:03 10° E night (unlit)
22 Jun - 03:02:41 10° WNW 03:10:20 62° SSW 03:17:39 10° SE visible
22 Jun - 04:59:56 10° WSW 05:04:57 19° SSW 05:09:48 10° SSE visible
22 Jun - 12:42:51 10° SSW 12:48:31 32° SSE 12:54:16 10° E daylight
22 Jun - 14:36:05 10° WSW 14:42:35 70° NNW 14:49:22 10° NE daylight
22 Jun - 16:32:11 10° WNW 16:37:01 21° NNW 16:42:05 10° NNE daylight
22 Jun - 22:24:18 10° N 22:26:20 11° NNE 22:28:24 10° NE visible
23 Jun - 00:14:56 10° NNW 00:21:47 32° NNE 00:28:34 10° E night (unlit)
23 Jun - 02:08:30 10° WNW 02:16:22 83° SSW 02:23:58 10° ESE visible
23 Jun - 04:04:43 10° W 04:10:52 26° SSW 04:16:48 10° SSE visible
23 Jun - 11:49:43 10° SSW 11:54:41 23° SSE 11:59:38 10° ESE daylight
23 Jun - 13:42:20 10° WSW 13:48:50 84° SSE 13:55:32 10° ENE daylight
23 Jun - 15:37:34 10° W 15:43:03 27° NNW 15:48:46 10° NNE daylight
23 Jun - 23:21:33 10° NNW 23:27:38 24° NNE 23:33:44 10° ENE visible
24 Jun - 01:14:30 10° NW 01:22:22 74° NNE 01:30:04 10° ESE night (unlit)
24 Jun - 03:09:51 10° W 03:16:50 36° SSW 03:23:34 10° SE visible
24 Jun - 05:09:52 10° SW 05:11:56 11° SSW 05:13:58 10° S visible
24 Jun - 10:56:47 10° SSW 11:00:44 16° SSE 11:04:39 10° ESE daylight
24 Jun - 12:48:44 10° SW 12:55:06 59° SSE 13:01:34 10° ENE daylight
24 Jun - 14:43:13 10° W 14:49:10 37° NNW 14:55:20 10° NE daylight
24 Jun - 16:41:53 10° NW 16:44:04 12° NNW 16:46:18 10° N daylight
24 Jun - 22:28:23 10° NNW 22:33:25 18° NNE 22:38:31 10° ENE visible
25 Jun - 00:20:42 10° NW 00:28:21 55° NNE 00:35:56 10° ESE night (unlit)
25 Jun - 02:15:18 10° WNW 02:22:49 49° SSW 02:30:07 10° SE night (unlit)
25 Jun - 04:13:24 10° WSW 04:17:42 16° SSW 04:21:53 10° S visible
25 Jun - 10:04:17 10° S 10:06:42 12° SSE 10:09:04 10° SE daylight
25 Jun - 11:55:16 10° SW 12:01:21 41° SSE 12:07:25 10° E daylight
25 Jun - 13:49:06 10° WSW 13:55:22 52° NNW 14:01:48 10° NE daylight
25 Jun - 15:46:13 10° WNW 15:49:56 15° NNW 15:53:44 10° NNE daylight
25 Jun - 21:35:37 10° N 21:39:09 14° NNE 21:42:44 10° NE visible
25 Jun - 23:27:05 10° NW 23:34:17 41° NNE 23:41:33 10° E night (unlit)
26 Jun - 01:20:59 10° WNW 01:28:48 66° SSW 01:36:29 10° SE night (unlit)
26 Jun - 03:17:52 10° WSW 03:23:31 21° SSW 03:29:01 10° SSE visible
26 Jun - 11:01:55 10° SSW 11:07:33 30° SSE 11:13:05 10° E daylight
26 Jun - 12:55:10 10° WSW 13:01:38 74° NNW 13:08:10 10° NE daylight
26 Jun - 14:51:13 10° WNW 14:55:55 21° NNW 15:00:44 10° NNE daylight
26 Jun - 22:33:38 10° NNW 22:40:12 30° NNE 22:46:53 10° E visible
27 Jun - 00:26:55 10° WNW 00:34:47 88° SSW 00:42:39 10° ESE night (unlit)
27 Jun - 02:22:48 10° W 02:29:23 29° SSW 02:35:50 10° SSE night (unlit)
27 Jun - 10:08:42 10° SSW 10:13:39 22° SSE 10:18:30 10° ESE daylight
27 Jun - 12:01:23 10° SW 12:07:55 79° SSE 12:14:24 10° ENE daylight
27 Jun - 13:56:35 10° W 14:02:00 28° NNW 14:07:32 10° NNE daylight
27 Jun - 21:40:24 10° NNW 21:46:05 22° NNE 21:51:53 10° ENE visible
27 Jun - 23:33:02 10° NW 23:40:46 70° NNE 23:48:36 10° ESE night (unlit)
